Regional Weather Roundup
Issued by NWS

Home | Current Version | Previous Version | Graphics & Text | Print | Product List | Glossary On
Versions: 1 2 3 4 5 6 7 8 9 10 11 12 13 14 15 16 17 18 19 20 21 22 23 24 25 26 27 28 29 30 31 32 33 34 35 36 37 38 39 40 41 42 43 44 45 46 47 48 49 50
000
ASUS43 KIND 281559
RWRIN

WEATHER ROUNDUP FOR INDIANA
NATIONAL WEATHER SERVICE INDIANAPOLIS IN
1200 PM EDT THU MAY 28 2015

NOTE: "FAIR" INDICATES FEW OR NO CLOUDS BELOW 12,000 FEET WITH NO
SIGNIFICANT WEATHER AND/OR OBSTRUCTIONS TO VISIBILITY.

* - STATION DOES NOT REPORT WEATHER SUCH AS PRECIPITATION OR FOG.

+ - STATION NOT QUALITY CONTROLLED BY THE NATIONAL WEATHER SERVICE.
    USE DATA WITH CAUTION...ESPECIALLY DEWPOINT AND RELATIVE
    HUMIDITY OBSERVATIONS.

INZ001>003-010>013-019-020-281700-
NORTHWEST INDIANA

CITY           SKY/WX    TMP DP  RH WIND       PRES   REMARKS
GARY /AIRPORT/ MOSUNNY   77  57  50 SE7       30.23S
RENSSELAER +   SUNNY     77  52  41 E10G16    30.23S

$$

LMZ046-743>745-281700-
SOUTHERN LAKE MICHIGAN

STATION/POSITION TIME  TEMP    WIND        PRES    WAVE
                       AIR SEA DIR/SP/G            HT
                 (UTC) (F)     (DEG/KT/KT) (MB)    (FT)
BURNS HARBOR     1500   65      50/  4/  6 1024.0S
MICHIGAN CITY    1500   69      40/  2/  3   N/A
5NW MICH CITY    1500   64 54   50/  2/  2   N/A     0

$$

INZ004-005-014>016-021>024-281700-
NORTH CENTRAL INDIANA

CITY           SKY/WX    TMP DP  RH WIND       PRES   REMARKS
ELKHART        SUNNY     75  55  50 SE6       30.26S
GOSHEN           N/A     76  58  53 MISG      30.25S
SOUTH BEND     SUNNY     76  54  46 E9        30.25S

$$

INZ006>009-017-018-025>027-281700-
NORTHEAST INDIANA

CITY           SKY/WX    TMP DP  RH WIND       PRES   REMARKS
ANGOLA *+      SUNNY     73  57  56 E10       30.26S
FORT WAYNE     MOSUNNY   73  61  65 E8        30.26R

$$

INZ028-029-035-036-043>045-051>053-281700-
WEST CENTRAL INDIANA

CITY           SKY/WX    TMP DP  RH WIND       PRES   REMARKS
CRAWFORDSVL +  SUNNY     73  46  37 E10       30.21F
GREENCASTLE +  SUNNY     77  50  38 E5        30.21F
LAFAYETTE      SUNNY     73  59  61 E9        30.21F
TERRE HAUTE    SUNNY     79  58  48 E7        30.19F

$$

INZ030>032-037>040-046>048-054>057-064-065-281700-
CENTRAL INDIANA

CITY           SKY/WX    TMP DP  RH WIND       PRES   REMARKS
ANDERSON       MOSUNNY   73  55  53 SE7       30.24S
COLUMBUS       MOSUNNY   75  64  69 S6        30.22R
GREENWOOD *+   SUNNY     75  55  50 CALM      30.23R
INDIANAPOLIS   MOSUNNY   76  56  49 E3        30.20S
-EAGLE CREEK   SUNNY     75  56  51 E7        30.21S
KOKOMO *+      SUNNY     73  61  64 E12       30.23S
MT COMFORT *+  SUNNY     77  48  36 CALM      30.23R
SHELBYVILLE    MOSUNNY   78  62  57 VRB5      30.22R

$$

INZ033-034-041-042-049-050-058-059-281700-
EAST CENTRAL INDIANA

CITY           SKY/WX    TMP DP  RH WIND       PRES   REMARKS
MUNCIE         MOSUNNY   76  60  57 SE9       30.24R

$$

INZ060-061-067>069-081>083-085>088-281700-
SOUTHWEST INDIANA

CITY           SKY/WX    TMP DP  RH WIND       PRES   REMARKS
EVANSVILLE     PTSUNNY   77  68  73 VRB5      30.18F
HUNTINGBURG *+ CLOUDY    73  66  78 SE5       30.20F

$$

INZ062-063-066-070>080-084-089>092-281700-
SOUTH CENTRAL AND SOUTHEAST INDIANA

CITY           SKY/WX    TMP DP  RH WIND       PRES   REMARKS
BLOOMINGTON      N/A     78  63  59 E6        30.20F
MADISON *+     CLOUDY    70  63  78 CALM      30.25S
SEYMOUR +      PTSUNNY   75  64  69 S7        30.22S HAZE

$$



USA.gov is the U.S. government's official web portal to all federal, state and local government web resources and services.